Location: Unspecified
(48.7670°N, 0.0000°E)
Time: 09:03:47
(UTC+00:00)

Courier 1B - Pass Details

Date: 22 June 2019
Orbit: 962 x 1209 km, 28.3° (Epoch: 23 July)

Event Time Altitude Azimuth Distance (km) Brightness Sun altitude
Rises 20:20:57 0° 234° (SW) 3,922 10.8 -2.6°
Reaches altitude 10° 20:25:06 10° 212° (SSW) 3,015 10.0 -3.1°
Maximum altitude 20:28:56 15° 181° (S) 2,707 9.5 -3.6°
Drops below altitude 10° 20:32:51 10° 150° (SSE) 3,093 9.5 -4.1°
Enters shadow 20:35:11 - 137° (SE) 3,576 9.7 -4.3°
Sets 20:37:13 0° 128° (SE) 4,086 - -4.6°
